Time,TemperatureF,DewpointF,PressureIn,WindDirection,WindDirectionDegrees,WindSpeedMPH,WindSpeedGustMPH,Humidity,HourlyPrecipIn,Conditions,Clouds,dailyrainin,SoftwareType,DateUTC
2013-01-03 00:04:00,6.5,-3.1,30.49,NNW,342,0.0,0.0,64,0.00,,---,0.00,VWS V14.00,2013-01-03 08:04:00,
2013-01-03 00:09:00,6.3,-2.9,30.49,NNW,342,0.0,0.0,65,0.00,,---,0.00,VWS V14.00,2013-01-03 08:09:00,
2013-01-03 00:14:00,6.1,-3.1,30.49,NNW,342,0.0,0.0,65,0.00,,---,0.00,VWS V14.00,2013-01-03 08:14:00,
2013-01-03 00:19:00,6.0,-3.2,30.47,NNW,342,0.0,0.0,65,0.00,,---,0.00,VWS V14.00,2013-01-03 08:19:00,
2013-01-03 00:24:00,5.8,-3.4,30.47,NNW,342,0.0,0.0,65,0.00,,---,0.00,VWS V14.00,2013-01-03 08:24:00,
2013-01-03 00:29:00,5.8,-3.4,30.47,NNW,342,0.0,0.0,65,0.00,,---,0.00,VWS V14.00,2013-01-03 08:29:00,
2013-01-03 00:34:00,5.8,-3.4,30.47,NNW,342,0.0,0.0,65,0.00,,---,0.00,VWS V14.00,2013-01-03 08:34:00,
2013-01-03 00:39:00,5.6,-4.9,30.47,NNW,342,0.0,0.0,61,0.00,,---,0.00,VWS V14.00,2013-01-03 08:39:00,
2013-01-03 00:44:00,5.4,-5.1,30.47,NNW,342,0.0,0.0,61,0.00,,---,0.00,VWS V14.00,2013-01-03 08:44:00,
2013-01-03 00:49:00,5.2,-5.3,30.47,NNW,342,0.0,0.0,61,0.00,,---,0.00,VWS V14.00,2013-01-03 08:49:00,
2013-01-03 00:55:00,5.2,-5.3,30.47,NNW,342,0.0,0.0,61,0.00,,---,0.00,VWS V14.00,2013-01-03 08:55:00,
2013-01-03 01:00:00,5.2,-5.3,30.47,NNW,342,0.0,0.0,61,0.00,,---,0.00,VWS V14.00,2013-01-03 09:00:00,
2013-01-03 01:05:00,5.2,-5.3,30.47,NNW,342,0.0,0.0,61,0.00,,---,0.00,VWS V14.00,2013-01-03 09:05:00,
2013-01-03 01:10:00,5.0,-5.5,30.47,NNW,342,0.0,0.0,61,0.00,,---,0.00,VWS V14.00,2013-01-03 09:10:00,
2013-01-03 01:15:00,5.0,-5.5,30.45,NNW,342,0.0,0.0,61,0.00,,---,0.00,VWS V14.00,2013-01-03 09:15:00,
2013-01-03 01:20:00,4.8,-6.0,30.45,NNW,342,0.0,0.0,60,0.00,,---,0.00,VWS V14.00,2013-01-03 09:20:00,
2013-01-03 01:26:00,4.7,-6.1,30.45,NNW,342,0.0,0.0,60,0.00,,---,0.00,VWS V14.00,2013-01-03 09:26:00,
2013-01-03 01:31:00,4.5,-6.0,30.45,NNW,342,0.0,0.0,61,0.00,,---,0.00,VWS V14.00,2013-01-03 09:31:00,
2013-01-03 01:36:00,4.3,-6.2,30.45,NNW,342,0.0,0.0,61,0.00,,---,0.00,VWS V14.00,2013-01-03 09:36:00,
2013-01-03 01:41:00,4.1,-6.3,30.45,NNW,342,0.0,0.0,61,0.00,,---,0.00,VWS V14.00,2013-01-03 09:41:00,
2013-01-03 01:46:00,4.1,-6.3,30.45,NNW,342,0.0,0.0,61,0.00,,---,0.00,VWS V14.00,2013-01-03 09:46:00,
2013-01-03 01:51:00,3.9,-6.5,30.45,NNW,342,0.0,0.0,61,0.00,,---,0.00,VWS V14.00,2013-01-03 09:51:00,
2013-01-03 01:56:00,3.5,-7.3,30.45,NNW,342,0.0,0.0,60,0.00,,---,0.00,VWS V14.00,2013-01-03 09:56:00,
2013-01-03 02:01:00,3.2,-7.5,30.46,NNW,342,0.0,0.0,60,0.00,,---,0.00,VWS V14.00,2013-01-03 10:01:00,
2013-01-03 02:06:00,2.8,-7.9,30.46,NNW,342,0.0,0.0,60,0.00,,---,0.00,VWS V14.00,2013-01-03 10:06:00,
2013-01-03 02:11:00,2.0,-9.0,30.46,NNW,342,0.0,0.0,59,0.00,,---,0.00,VWS V14.00,2013-01-03 10:11:00,
2013-01-03 02:16:00,1.5,-9.5,30.48,NNW,342,0.0,0.0,59,0.00,,---,0.00,VWS V14.00,2013-01-03 10:16:00,
2013-01-03 02:21:00,1.1,-7.3,30.48,NNW,342,0.0,0.0,67,0.00,,---,0.00,VWS V14.00,2013-01-03 10:21:00,
2013-01-03 02:26:00,0.7,-7.7,30.48,NNW,342,0.0,0.0,67,0.00,,---,0.00,VWS V14.00,2013-01-03 10:26:00,
2013-01-03 02:31:00,0.3,-8.4,30.49,NNW,342,0.0,0.0,66,0.00,,---,0.00,VWS V14.00,2013-01-03 10:31:00,
2013-01-03 02:37:00,0.1,-8.6,30.49,NNW,342,0.0,0.0,66,0.00,,---,0.00,VWS V14.00,2013-01-03 10:37:00,
2013-01-03 02:42:00,-0.6,-9.2,30.49,NNW,342,0.0,0.0,66,0.00,,---,0.00,VWS V14.00,2013-01-03 10:42:00,
2013-01-03 02:47:00,-1.0,-9.6,30.49,NNW,342,0.0,0.0,66,0.00,,---,0.00,VWS V14.00,2013-01-03 10:47:00,
2013-01-03 02:52:00,-1.4,-10.0,30.49,NNW,342,0.0,0.0,66,0.00,,---,0.00,VWS V14.00,2013-01-03 10:52:00,
2013-01-03 02:57:00,-1.6,-10.2,30.49,NNW,342,0.0,0.0,66,0.00,,---,0.00,VWS V14.00,2013-01-03 10:57:00,
2013-01-03 03:02:00,-2.0,-10.6,30.49,NNW,342,0.0,0.0,66,0.00,,---,0.00,VWS V14.00,2013-01-03 11:02:00,
2013-01-03 03:07:00,-2.2,-10.8,30.49,NNW,342,0.0,0.0,66,0.00,,---,0.00,VWS V14.00,2013-01-03 11:07:00,
2013-01-03 03:13:00,-2.6,-10.5,30.49,NNW,342,0.0,0.0,68,0.00,,---,0.00,VWS V14.00,2013-01-03 11:13:00,
2013-01-03 03:18:00,-2.6,-10.5,30.51,NNW,342,0.0,0.0,68,0.00,,---,0.00,VWS V14.00,2013-01-03 11:18:00,
2013-01-03 03:23:00,-2.8,-11.0,30.51,NNW,342,0.0,0.0,67,0.00,,---,0.00,VWS V14.00,2013-01-03 11:23:00,
2013-01-03 03:28:00,-3.1,-11.3,30.51,NNW,342,0.0,0.0,67,0.00,,---,0.00,VWS V14.00,2013-01-03 11:28:00,
2013-01-03 03:33:00,-3.3,-11.5,30.50,NNW,342,0.0,0.0,67,0.00,,---,0.00,VWS V14.00,2013-01-03 11:33:00,
2013-01-03 03:39:00,-3.3,-11.5,30.50,NNW,342,0.0,0.0,67,0.00,,---,0.00,VWS V14.00,2013-01-03 11:39:00,
2013-01-03 03:44:00,-3.5,-11.7,30.50,NNW,342,0.0,0.0,67,0.00,,---,0.00,VWS V14.00,2013-01-03 11:44:00,
2013-01-03 03:49:00,-3.7,-11.9,30.50,NNW,342,0.0,0.0,67,0.00,,---,0.00,VWS V14.00,2013-01-03 11:49:00,
2013-01-03 03:54:00,-3.7,-11.9,30.50,NNW,342,0.0,0.0,67,0.00,,---,0.00,VWS V14.00,2013-01-03 11:54:00,
2013-01-03 03:59:00,-3.7,-11.9,30.50,NNW,342,0.0,0.0,67,0.00,,---,0.00,VWS V14.00,2013-01-03 11:59:00,
2013-01-03 04:04:00,-3.7,-11.9,30.50,NNW,342,0.0,0.0,67,0.00,,---,0.00,VWS V14.00,2013-01-03 12:04:00,
2013-01-03 04:09:00,-3.9,-13.3,30.50,NNW,342,0.0,0.0,63,0.00,,---,0.00,VWS V14.00,2013-01-03 12:09:00,
2013-01-03 04:14:00,-4.1,-13.5,30.50,NNW,342,0.0,0.0,63,0.00,,---,0.00,VWS V14.00,2013-01-03 12:14:00,
2013-01-03 04:19:00,-4.1,-13.5,30.51,NNW,342,0.0,0.0,63,0.00,,---,0.00,VWS V14.00,2013-01-03 12:19:00,
2013-01-03 04:24:00,-4.1,-13.5,30.51,NNW,342,0.0,0.0,63,0.00,,---,0.00,VWS V14.00,2013-01-03 12:24:00,
2013-01-03 04:29:00,-4.1,-13.5,30.51,NNW,342,0.0,0.0,63,0.00,,---,0.00,VWS V14.00,2013-01-03 12:29:00,
2013-01-03 04:35:00,-4.1,-13.5,30.51,WNW,299,2.0,3.0,63,0.00,,---,0.00,VWS V14.00,2013-01-03 12:35:00,
2013-01-03 04:40:00,-4.3,-13.7,30.51,WNW,298,1.0,3.0,63,0.00,,---,0.00,VWS V14.00,2013-01-03 12:40:00,
2013-01-03 04:45:00,-4.3,-13.7,30.51,WNW,298,0.0,2.0,63,0.00,,---,0.00,VWS V14.00,2013-01-03 12:45:00,
2013-01-03 04:50:00,-4.3,-12.2,30.51,WNW,298,0.0,2.0,68,0.00,,---,0.00,VWS V14.00,2013-01-03 12:50:00,
2013-01-03 04:55:00,-4.6,-12.5,30.51,WNW,298,0.0,0.0,68,0.00,,---,0.00,VWS V14.00,2013-01-03 12:55:00,
2013-01-03 05:00:00,-4.8,-12.6,30.51,WNW,298,1.0,2.0,68,0.00,,---,0.00,VWS V14.00,2013-01-03 13:00:00,
2013-01-03 05:05:00,-4.8,-12.6,30.52,WNW,298,0.0,2.0,68,0.00,,---,0.00,VWS V14.00,2013-01-03 13:05:00,
2013-01-03 05:10:00,-4.8,-12.6,30.52,WNW,298,0.0,2.0,68,0.00,,---,0.00,VWS V14.00,2013-01-03 13:10:00,
2013-01-03 05:15:00,-4.8,-12.6,30.51,WNW,298,0.0,0.0,68,0.00,,---,0.00,VWS V14.00,2013-01-03 13:15:00,
2013-01-03 05:20:00,-4.8,-12.4,30.51,WNW,298,0.0,0.0,69,0.00,,---,0.00,VWS V14.00,2013-01-03 13:20:00,
2013-01-03 05:25:00,-4.8,-12.6,30.51,WNW,298,0.0,0.0,68,0.00,,---,0.00,VWS V14.00,2013-01-03 13:25:00,
2013-01-03 05:30:00,-4.8,-12.6,30.51,WNW,298,0.0,0.0,68,0.00,,---,0.00,VWS V14.00,2013-01-03 13:30:00,
2013-01-03 05:35:00,-4.8,-12.4,30.51,WNW,298,0.0,0.0,69,0.00,,---,0.00,VWS V14.00,2013-01-03 13:35:00,
2013-01-03 05:40:00,-4.8,-17.5,30.51,WNW,298,0.0,0.0,53,0.00,,---,0.00,VWS V14.00,2013-01-03 13:40:00,
2013-01-03 05:45:00,-4.8,-17.5,30.50,WNW,298,0.0,0.0,53,0.00,,---,0.00,VWS V14.00,2013-01-03 13:45:00,
2013-01-03 05:50:00,-5.0,-17.7,30.50,WNW,298,0.0,1.0,53,0.00,,---,0.00,VWS V14.00,2013-01-03 13:50:00,
2013-01-03 05:55:00,-4.8,-17.5,30.50,WNW,298,0.0,0.0,53,0.00,,---,0.00,VWS V14.00,2013-01-03 13:55:00,
2013-01-03 06:00:00,-5.0,-17.7,30.50,WNW,298,0.0,0.0,53,0.00,,---,0.00,VWS V14.00,2013-01-03 14:00:00,
2013-01-03 06:06:00,-4.8,-17.5,30.50,WNW,298,1.0,2.0,53,0.00,,---,0.00,VWS V14.00,2013-01-03 14:06:00,
2013-01-03 06:11:00,-4.8,-17.5,30.50,WNW,298,0.0,2.0,53,0.00,,---,0.00,VWS V14.00,2013-01-03 14:11:00,
2013-01-03 06:16:00,-4.6,-17.0,30.49,WNW,298,0.0,1.0,54,0.00,,---,0.00,VWS V14.00,2013-01-03 14:16:00,
2013-01-03 06:21:00,-4.1,-16.5,30.49,WNW,298,0.0,2.0,54,0.00,,---,0.00,VWS V14.00,2013-01-03 14:21:00,
2013-01-03 06:26:00,-3.5,-15.6,30.49,WNW,298,0.0,1.0,55,0.00,,---,0.00,VWS V14.00,2013-01-03 14:26:00,
2013-01-03 06:31:00,-3.1,-11.0,30.48,WNW,298,0.0,1.0,68,0.00,,---,0.00,VWS V14.00,2013-01-03 14:31:00,
2013-01-03 06:36:00,-1.4,-8.5,30.48,WNW,298,0.0,2.0,71,0.00,,---,0.00,VWS V14.00,2013-01-03 14:36:00,
2013-01-03 06:41:00,0.3,-6.3,30.48,WNW,298,0.0,0.0,73,0.00,,---,0.00,VWS V14.00,2013-01-03 14:41:00,
2013-01-03 06:46:00,3.5,-2.3,30.46,SSW,208,2.0,5.0,76,0.00,,---,0.00,VWS V14.00,2013-01-03 14:46:00,
2013-01-03 06:51:00,6.1,-0.4,30.46,SE,130,0.0,0.0,74,0.00,,---,0.00,VWS V14.00,2013-01-03 14:51:00,
2013-01-03 06:56:00,6.9,0.1,30.46,SE,130,0.0,2.0,73,0.00,,---,0.00,VWS V14.00,2013-01-03 14:56:00,
2013-01-03 07:02:00,7.6,0.2,30.43,SE,130,1.0,1.0,71,0.00,,---,0.00,VWS V14.00,2013-01-03 15:02:00,
2013-01-03 07:07:00,8.3,0.9,30.43,South,184,2.0,7.0,71,0.00,,---,0.00,VWS V14.00,2013-01-03 15:07:00,
2013-01-03 07:12:00,8.6,0.8,30.43,South,185,3.0,9.0,70,0.00,,---,0.00,VWS V14.00,2013-01-03 15:12:00,
2013-01-03 07:17:00,8.8,0.7,30.42,SSW,192,2.0,12.0,69,0.00,,---,0.00,VWS V14.00,2013-01-03 15:17:00,
2013-01-03 07:22:00,8.8,-1.5,30.42,SSW,192,2.0,6.0,62,0.00,,---,0.00,VWS V14.00,2013-01-03 15:22:00,
2013-01-03 07:27:00,8.6,-2.1,30.42,South,188,7.0,12.0,61,0.00,,---,0.00,VWS V14.00,2013-01-03 15:27:00,
2013-01-03 07:32:00,8.6,-2.1,30.42,South,182,9.0,9.0,61,0.00,,---,0.00,VWS V14.00,2013-01-03 15:32:00,
2013-01-03 07:37:00,8.6,-2.1,30.42,South,188,5.0,12.0,61,0.00,,---,0.00,VWS V14.00,2013-01-03 15:37:00,
2013-01-03 07:42:00,8.8,-2.2,30.42,South,185,8.0,14.0,60,0.00,,---,0.00,VWS V14.00,2013-01-03 15:42:00,
2013-01-03 07:47:00,9.0,-2.0,30.42,South,191,5.0,14.0,60,0.00,,---,0.00,VWS V14.00,2013-01-03 15:47:00,
2013-01-03 07:52:00,9.0,-2.0,30.42,South,184,5.0,10.0,60,0.00,,---,0.00,VWS V14.00,2013-01-03 15:52:00,
2013-01-03 07:58:00,9.2,-1.9,30.42,South,186,7.0,14.0,60,0.00,,---,0.00,VWS V14.00,2013-01-03 15:58:00,
2013-01-03 08:03:00,9.3,-1.8,30.42,SSW,199,7.0,10.0,60,0.00,,---,0.00,VWS V14.00,2013-01-03 16:03:00,
2013-01-03 08:08:00,9.7,-2.1,30.42,South,181,8.0,16.0,58,0.00,,---,0.00,VWS V14.00,2013-01-03 16:08:00,
2013-01-03 08:13:00,9.9,-0.9,30.42,South,172,5.0,10.0,61,0.00,,---,0.00,VWS V14.00,2013-01-03 16:13:00,
2013-01-03 08:18:00,10.0,-1.1,30.42,SSW,192,3.0,12.0,60,0.00,,---,0.00,VWS V14.00,2013-01-03 16:18:00,
2013-01-03 08:23:00,10.2,-0.9,30.42,South,181,6.0,11.0,60,0.00,,---,0.00,VWS V14.00,2013-01-03 16:23:00,
2013-01-03 08:28:00,10.2,-0.9,30.42,SSW,195,5.0,11.0,60,0.00,,---,0.00,VWS V14.00,2013-01-03 16:28:00,
2013-01-03 08:33:00,10.2,-0.9,30.42,South,186,7.0,12.0,60,0.00,,---,0.00,VWS V14.00,2013-01-03 16:33:00,
2013-01-03 08:38:00,10.2,-0.9,30.42,SSW,198,7.0,12.0,60,0.00,,---,0.00,VWS V14.00,2013-01-03 16:38:00,
2013-01-03 08:43:00,10.2,-1.3,30.42,SSW,205,2.0,10.0,59,0.00,,---,0.00,VWS V14.00,2013-01-03 16:43:00,
2013-01-03 08:48:00,10.4,-0.7,30.43,South,191,2.0,10.0,60,0.00,,---,0.00,VWS V14.00,2013-01-03 16:48:00,
2013-01-03 08:53:00,10.4,-0.7,30.43,SSW,196,6.0,8.0,60,0.00,,---,0.00,VWS V14.00,2013-01-03 16:53:00,
2013-01-03 08:58:00,10.5,-0.6,30.43,SSW,196,8.0,10.0,60,0.00,,---,0.00,VWS V14.00,2013-01-03 16:58:00,
2013-01-03 09:03:00,11.1,-0.1,30.42,South,189,7.0,12.0,60,0.00,,---,0.00,VWS V14.00,2013-01-03 17:03:00,
2013-01-03 09:09:00,11.4,0.6,30.42,South,191,2.0,12.0,61,0.00,,---,0.00,VWS V14.00,2013-01-03 17:09:00,
2013-01-03 09:14:00,11.6,0.1,30.42,SSW,196,7.0,12.0,59,0.00,,---,0.00,VWS V14.00,2013-01-03 17:14:00,
2013-01-03 09:19:00,12.1,0.9,30.42,SSW,198,7.0,12.0,60,0.00,,---,0.00,VWS V14.00,2013-01-03 17:19:00,
2013-01-03 09:24:00,12.4,0.4,30.42,SSW,208,8.0,14.0,58,0.00,,---,0.00,VWS V14.00,2013-01-03 17:24:00,
2013-01-03 09:29:00,12.8,0.8,30.42,SSW,192,10.0,14.0,58,0.00,,---,0.00,VWS V14.00,2013-01-03 17:29:00,
2013-01-03 09:34:00,12.9,0.6,30.42,SSW,195,6.0,10.0,57,0.00,,---,0.00,VWS V14.00,2013-01-03 17:34:00,
2013-01-03 09:39:00,13.3,1.3,30.42,SSW,193,5.0,10.0,58,0.00,,---,0.00,VWS V14.00,2013-01-03 17:39:00,
2013-01-03 09:44:00,13.6,1.2,30.42,SSW,199,9.0,10.0,57,0.00,,---,0.00,VWS V14.00,2013-01-03 17:44:00,
2013-01-03 09:49:00,14.0,1.6,30.41,South,182,6.0,14.0,57,0.00,,---,0.00,VWS V14.00,2013-01-03 17:49:00,
2013-01-03 09:54:00,14.3,0.3,30.41,SSW,200,11.0,12.0,53,0.00,,---,0.00,VWS V14.00,2013-01-03 17:54:00,
2013-01-03 09:59:00,14.6,0.2,30.41,South,182,2.0,12.0,52,0.00,,---,0.00,VWS V14.00,2013-01-03 17:59:00,
2013-01-03 10:04:00,14.9,0.1,30.42,South,178,5.0,14.0,51,0.00,,---,0.00,VWS V14.00,2013-01-03 18:04:00,
2013-01-03 10:09:00,15.1,-0.2,30.42,South,184,5.0,14.0,50,0.00,,---,0.00,VWS V14.00,2013-01-03 18:09:00,
2013-01-03 10:14:00,15.6,0.3,30.42,WSW,240,5.0,8.0,50,0.00,,---,0.00,VWS V14.00,2013-01-03 18:14:00,
2013-01-03 10:20:00,15.7,0.4,30.43,South,178,5.0,11.0,50,0.00,,---,0.00,VWS V14.00,2013-01-03 18:20:00,
2013-01-03 10:25:00,15.9,0.1,30.43,South,178,7.0,10.0,49,0.00,,---,0.00,VWS V14.00,2013-01-03 18:25:00,
2013-01-03 10:30:00,16.1,1.2,30.43,ESE,117,7.0,11.0,51,0.00,,---,0.00,VWS V14.00,2013-01-03 18:30:00,
2013-01-03 10:35:00,16.5,0.7,30.42,SSE,165,5.0,11.0,49,0.00,,---,0.00,VWS V14.00,2013-01-03 18:35:00,
2013-01-03 10:40:00,16.9,1.1,30.42,SE,137,2.0,11.0,49,0.00,,---,0.00,VWS V14.00,2013-01-03 18:40:00,
2013-01-03 10:45:00,17.3,1.4,30.42,SSE,167,2.0,8.0,49,0.00,,---,0.00,VWS V14.00,2013-01-03 18:45:00,
2013-01-03 10:50:00,17.2,1.3,30.41,South,182,6.0,17.0,49,0.00,,---,0.00,VWS V14.00,2013-01-03 18:50:00,
2013-01-03 10:55:00,17.2,0.9,30.41,SSE,161,10.0,13.0,48,0.00,,---,0.00,VWS V14.00,2013-01-03 18:55:00,
2013-01-03 11:00:00,17.3,1.4,30.40,South,188,10.0,13.0,49,0.00,,---,0.00,VWS V14.00,2013-01-03 19:00:00,
2013-01-03 11:05:00,17.5,1.6,30.40,SSW,199,10.0,20.0,49,0.00,,---,0.00,VWS V14.00,2013-01-03 19:05:00,
2013-01-03 11:10:00,18.0,1.6,30.40,SW,217,7.0,20.0,48,0.00,,---,0.00,VWS V14.00,2013-01-03 19:10:00,
2013-01-03 11:15:00,18.4,2.0,30.41,SSW,192,7.0,12.0,48,0.00,,---,0.00,VWS V14.00,2013-01-03 19:15:00,
2013-01-03 11:42:00,20.6,3.6,30.39,SSW,209,8.0,8.0,47,0.00,,---,0.00,VWS V14.00,2013-01-03 19:42:00,
2013-01-03 11:53:00,21.6,4.5,30.38,South,175,4.0,12.0,47,0.00,,---,0.00,VWS V14.00,2013-01-03 19:53:00,
2013-01-03 11:58:00,22.1,4.5,30.38,SSW,196,5.0,12.0,46,0.00,,---,0.00,VWS V14.00,2013-01-03 19:58:00,
2013-01-03 12:03:00,22.7,5.0,30.36,SSE,164,6.0,7.0,46,0.00,,---,0.00,VWS V14.00,2013-01-03 20:03:00,
2013-01-03 12:08:00,23.5,5.8,30.36,SSW,199,12.0,14.0,46,0.00,,---,0.00,VWS V14.00,2013-01-03 20:08:00,
2013-01-03 12:13:00,23.9,6.6,30.36,SSW,193,2.0,7.0,47,0.00,,---,0.00,VWS V14.00,2013-01-03 20:13:00,
2013-01-03 12:18:00,24.5,6.2,30.36,SSW,196,2.0,7.0,45,0.00,,---,0.00,VWS V14.00,2013-01-03 20:18:00,
2013-01-03 12:23:00,25.1,8.6,30.36,SSW,193,5.0,6.0,49,0.00,,---,0.00,VWS V14.00,2013-01-03 20:23:00,
2013-01-03 12:29:00,25.6,9.1,30.36,SSW,192,2.0,8.0,49,0.00,,---,0.00,VWS V14.00,2013-01-03 20:29:00,
2013-01-03 12:34:00,26.1,8.6,30.34,SSW,212,3.0,8.0,47,0.00,,---,0.00,VWS V14.00,2013-01-03 20:34:00,
2013-01-03 12:39:00,26.6,8.6,30.34,SSW,203,5.0,8.0,46,0.00,,---,0.00,VWS V14.00,2013-01-03 20:39:00,
2013-01-03 12:44:00,26.9,9.4,30.34,SSW,200,0.0,5.0,47,0.00,,---,0.00,VWS V14.00,2013-01-03 20:44:00,
2013-01-03 12:49:00,27.0,8.5,30.32,SSE,165,2.0,11.0,45,0.00,,---,0.00,VWS V14.00,2013-01-03 20:49:00,
2013-01-03 12:54:00,27.6,9.1,30.32,SSW,196,10.0,11.0,45,0.00,,---,0.00,VWS V14.00,2013-01-03 20:54:00,
2013-01-03 12:59:00,28.4,8.8,30.32,SSW,199,4.0,11.0,43,0.00,,---,0.00,VWS V14.00,2013-01-03 20:59:00,
2013-01-03 13:04:00,29.0,9.8,30.31,SSW,192,2.0,7.0,44,0.00,,---,0.00,VWS V14.00,2013-01-03 21:04:00,
2013-01-03 13:09:00,29.1,10.4,30.31,South,186,6.0,7.0,45,0.00,,---,0.00,VWS V14.00,2013-01-03 21:09:00,
2013-01-03 13:14:00,29.1,9.9,30.31,SSW,192,2.0,10.0,44,0.00,,---,0.00,VWS V14.00,2013-01-03 21:14:00,
2013-01-03 13:19:00,29.0,9.8,30.32,SSW,193,8.0,10.0,44,0.00,,---,0.00,VWS V14.00,2013-01-03 21:19:00,
2013-01-03 13:24:00,29.3,9.6,30.32,SSW,195,5.0,8.0,43,0.00,,---,0.00,VWS V14.00,2013-01-03 21:24:00,
2013-01-03 13:29:00,29.3,9.6,30.32,South,191,3.0,10.0,43,0.00,,---,0.00,VWS V14.00,2013-01-03 21:29:00,
2013-01-03 13:34:00,29.4,9.7,30.32,South,189,7.0,8.0,43,0.00,,---,0.00,VWS V14.00,2013-01-03 21:34:00,
2013-01-03 13:39:00,29.7,10.0,30.32,South,186,2.0,10.0,43,0.00,,---,0.00,VWS V14.00,2013-01-03 21:39:00,
2013-01-03 13:44:00,29.7,10.0,30.32,SSW,193,2.0,11.0,43,0.00,,---,0.00,VWS V14.00,2013-01-03 21:44:00,
2013-01-03 13:49:00,30.0,9.7,30.31,SSW,196,5.0,11.0,42,0.00,,---,0.00,VWS V14.00,2013-01-03 21:49:00,
2013-01-03 13:54:00,30.0,9.7,30.31,SSW,196,4.0,7.0,42,0.00,,---,0.00,VWS V14.00,2013-01-03 21:54:00,
2013-01-03 13:59:00,30.0,10.7,30.31,SSW,198,0.0,7.0,44,0.00,,---,0.00,VWS V14.00,2013-01-03 21:59:00,
2013-01-03 14:04:00,29.5,10.8,30.32,SSW,203,8.0,8.0,45,0.00,,---,0.00,VWS V14.00,2013-01-03 22:04:00,
2013-01-03 14:10:00,29.5,9.8,30.32,SSW,193,2.0,11.0,43,0.00,,---,0.00,VWS V14.00,2013-01-03 22:10:00,
2013-01-03 14:15:00,29.7,10.0,30.32,South,189,10.0,10.0,43,0.00,,---,0.00,VWS V14.00,2013-01-03 22:15:00,
2013-01-03 14:20:00,29.7,10.5,30.34,SSW,198,3.0,11.0,44,0.00,,---,0.00,VWS V14.00,2013-01-03 22:20:00,
2013-01-03 14:25:00,29.7,10.0,30.34,South,185,5.0,7.0,43,0.00,,---,0.00,VWS V14.00,2013-01-03 22:25:00,
2013-01-03 14:30:00,29.8,10.6,30.34,South,182,2.0,7.0,44,0.00,,---,0.00,VWS V14.00,2013-01-03 22:30:00,
2013-01-03 14:35:00,29.8,10.6,30.34,SSW,195,7.0,8.0,44,0.00,,---,0.00,VWS V14.00,2013-01-03 22:35:00,
2013-01-03 14:40:00,29.8,10.6,30.34,SSW,200,2.0,8.0,44,0.00,,---,0.00,VWS V14.00,2013-01-03 22:40:00,
2013-01-03 14:45:00,29.8,11.1,30.34,SSW,205,0.0,9.0,45,0.00,,---,0.00,VWS V14.00,2013-01-03 22:45:00,
2013-01-03 14:50:00,29.8,11.6,30.34,SSW,203,1.0,9.0,46,0.00,,---,0.00,VWS V14.00,2013-01-03 22:50:00,
2013-01-03 14:55:00,30.0,11.2,30.34,SSW,203,3.0,7.0,45,0.00,,---,0.00,VWS V14.00,2013-01-03 22:55:00,
2013-01-03 15:00:00,30.3,12.0,30.34,SSW,203,0.0,7.0,46,0.00,,---,0.00,VWS V14.00,2013-01-03 23:00:00,
2013-01-03 15:05:00,30.4,11.1,30.34,SSW,196,5.0,8.0,44,0.00,,---,0.00,VWS V14.00,2013-01-03 23:05:00,
2013-01-03 15:10:00,30.6,12.3,30.34,SSW,209,8.0,11.0,46,0.00,,---,0.00,VWS V14.00,2013-01-03 23:10:00,
2013-01-03 15:15:00,30.7,10.9,30.36,South,174,4.0,7.0,43,0.00,,---,0.00,VWS V14.00,2013-01-03 23:15:00,
2013-01-03 15:20:00,30.7,11.9,30.36,South,189,8.0,8.0,45,0.00,,---,0.00,VWS V14.00,2013-01-03 23:20:00,
2013-01-03 15:25:00,30.6,11.8,30.36,SSW,196,3.0,7.0,45,0.00,,---,0.00,VWS V14.00,2013-01-03 23:25:00,
2013-01-03 15:30:00,30.4,12.1,30.36,South,184,2.0,7.0,46,0.00,,---,0.00,VWS V14.00,2013-01-03 23:30:00,
2013-01-03 15:35:00,30.6,11.3,30.36,South,191,0.0,6.0,44,0.00,,---,0.00,VWS V14.00,2013-01-03 23:35:00,
2013-01-03 15:40:00,30.6,11.3,30.36,South,191,2.0,6.0,44,0.00,,---,0.00,VWS V14.00,2013-01-03 23:40:00,
2013-01-03 15:45:00,30.4,12.1,30.37,SSW,193,2.0,7.0,46,0.00,,---,0.00,VWS V14.00,2013-01-03 23:45:00,
2013-01-03 15:50:00,30.1,11.8,30.37,SE,126,2.0,7.0,46,0.00,,---,0.00,VWS V14.00,2013-01-03 23:50:00,
2013-01-03 15:56:00,30.0,11.2,30.37,SSW,192,5.0,8.0,45,0.00,,---,0.00,VWS V14.00,2013-01-03 23:56:00,
2013-01-03 16:01:00,29.7,11.9,30.36,SSE,160,2.0,8.0,47,0.00,,---,0.00,VWS V14.00,2013-01-04 00:01:00,
2013-01-03 16:06:00,29.7,11.0,30.36,South,189,1.0,5.0,45,0.00,,---,0.00,VWS V14.00,2013-01-04 00:06:00,
2013-01-03 16:11:00,29.5,12.2,30.36,South,189,4.0,5.0,48,0.00,,---,0.00,VWS V14.00,2013-01-04 00:11:00,
2013-01-03 16:16:00,29.1,11.9,30.38,South,186,3.0,7.0,48,0.00,,---,0.00,VWS V14.00,2013-01-04 00:16:00,
2013-01-03 16:21:00,29.0,10.8,30.38,South,189,5.0,8.0,46,0.00,,---,0.00,VWS V14.00,2013-01-04 00:21:00,
2013-01-03 16:26:00,28.8,10.6,30.38,SSW,192,5.0,10.0,46,0.00,,---,0.00,VWS V14.00,2013-01-04 00:26:00,
2013-01-03 16:31:00,28.8,11.1,30.37,SSW,199,4.0,10.0,47,0.00,,---,0.00,VWS V14.00,2013-01-04 00:31:00,
2013-01-03 16:36:00,28.7,10.6,30.37,South,186,3.0,7.0,46,0.00,,---,0.00,VWS V14.00,2013-01-04 00:36:00,
2013-01-03 16:41:00,28.5,11.3,30.37,South,184,6.0,7.0,48,0.00,,---,0.00,VWS V14.00,2013-01-04 00:41:00,
2013-01-03 16:46:00,28.1,10.9,30.38,South,184,2.0,6.0,48,0.00,,---,0.00,VWS V14.00,2013-01-04 00:46:00,
2013-01-03 16:51:00,27.9,11.2,30.38,South,184,3.0,6.0,49,0.00,,---,0.00,VWS V14.00,2013-01-04 00:51:00,
2013-01-03 16:56:00,27.6,11.4,30.38,South,186,5.0,7.0,50,0.00,,---,0.00,VWS V14.00,2013-01-04 00:56:00,
2013-01-03 17:01:00,27.6,10.9,30.39,South,188,2.0,5.0,49,0.00,,---,0.00,VWS V14.00,2013-01-04 01:01:00,
2013-01-03 17:06:00,27.8,10.7,30.39,SSW,195,5.0,8.0,48,0.00,,---,0.00,VWS V14.00,2013-01-04 01:06:00,
2013-01-03 17:11:00,27.8,10.7,30.39,SSW,203,5.0,7.0,48,0.00,,---,0.00,VWS V14.00,2013-01-04 01:11:00,
2013-01-03 17:16:00,28.1,11.4,30.39,South,182,6.0,11.0,49,0.00,,---,0.00,VWS V14.00,2013-01-04 01:16:00,
2013-01-03 17:22:00,28.2,11.0,30.39,SSW,203,8.0,10.0,48,0.00,,---,0.00,VWS V14.00,2013-01-04 01:22:00,
2013-01-03 17:27:00,28.2,11.0,30.39,SSW,209,3.0,10.0,48,0.00,,---,0.00,VWS V14.00,2013-01-04 01:27:00,
2013-01-03 17:32:00,28.4,10.8,30.40,SSW,198,5.0,10.0,47,0.00,,---,0.00,VWS V14.00,2013-01-04 01:32:00,
2013-01-03 17:37:00,28.1,10.9,30.40,SSW,210,3.0,10.0,48,0.00,,---,0.00,VWS V14.00,2013-01-04 01:37:00,
2013-01-03 17:42:00,28.1,10.5,30.40,SSW,193,5.0,7.0,47,0.00,,---,0.00,VWS V14.00,2013-01-04 01:42:00,
2013-01-03 17:47:00,28.2,10.6,30.39,South,182,9.0,10.0,47,0.00,,---,0.00,VWS V14.00,2013-01-04 01:47:00,
2013-01-03 17:52:00,28.4,10.3,30.39,South,186,2.0,5.0,46,0.00,,---,0.00,VWS V14.00,2013-01-04 01:52:00,
2013-01-03 17:57:00,28.5,11.3,30.39,SSW,195,5.0,11.0,48,0.00,,---,0.00,VWS V14.00,2013-01-04 01:57:00,
2013-01-03 18:02:00,28.5,10.9,30.39,SSW,192,7.0,8.0,47,0.00,,---,0.00,VWS V14.00,2013-01-04 02:02:00,
2013-01-03 18:07:00,28.1,11.9,30.39,SSW,195,2.0,10.0,50,0.00,,---,0.00,VWS V14.00,2013-01-04 02:07:00,
2013-01-03 18:12:00,27.2,11.5,30.39,SSW,198,6.0,7.0,51,0.00,,---,0.00,VWS V14.00,2013-01-04 02:12:00,
2013-01-03 18:17:00,27.6,11.4,30.34,SSW,212,7.0,12.0,50,0.00,,---,0.00,VWS V14.00,2013-01-04 02:17:00,
2013-01-03 18:22:00,27.8,11.1,30.34,SSW,192,6.0,11.0,49,0.00,,---,0.00,VWS V14.00,2013-01-04 02:22:00,
2013-01-03 18:27:00,27.6,10.9,30.34,SSW,196,11.0,12.0,49,0.00,,---,0.00,VWS V14.00,2013-01-04 02:27:00,
2013-01-03 18:32:00,27.5,10.9,30.34,SSW,198,6.0,13.0,49,0.00,,---,0.00,VWS V14.00,2013-01-04 02:32:00,
2013-01-03 18:38:00,27.5,11.3,30.34,SSW,198,7.0,16.0,50,0.00,,---,0.00,VWS V14.00,2013-01-04 02:38:00,
2013-01-03 18:43:00,27.3,11.1,30.34,SSW,205,11.0,13.0,50,0.00,,---,0.00,VWS V14.00,2013-01-04 02:43:00,
2013-01-03 18:48:00,27.2,10.6,30.35,SSW,193,7.0,14.0,49,0.00,,---,0.00,VWS V14.00,2013-01-04 02:48:00,
2013-01-03 18:53:00,27.0,9.9,30.35,South,188,9.0,16.0,48,0.00,,---,0.00,VWS V14.00,2013-01-04 02:53:00,
2013-01-03 18:58:00,27.2,10.1,30.35,SSW,208,10.0,19.0,48,0.00,,---,0.00,VWS V14.00,2013-01-04 02:58:00,
2013-01-03 19:03:00,27.0,10.4,30.34,SSW,206,7.0,11.0,49,0.00,,---,0.00,VWS V14.00,2013-01-04 03:03:00,
2013-01-03 19:08:00,26.9,9.9,30.34,SSW,196,9.0,11.0,48,0.00,,---,0.00,VWS V14.00,2013-01-04 03:08:00,
2013-01-03 19:13:00,27.0,10.4,30.34,SSW,195,6.0,8.0,49,0.00,,---,0.00,VWS V14.00,2013-01-04 03:13:00,
2013-01-03 19:18:00,27.0,10.4,30.34,SSW,202,10.0,13.0,49,0.00,,---,0.00,VWS V14.00,2013-01-04 03:18:00,
2013-01-03 19:23:00,27.0,9.5,30.34,SW,216,9.0,14.0,47,0.00,,---,0.00,VWS V14.00,2013-01-04 03:23:00,
2013-01-03 19:28:00,26.7,10.6,30.34,SSW,199,5.0,14.0,50,0.00,,---,0.00,VWS V14.00,2013-01-04 03:28:00,
2013-01-03 19:33:00,26.4,10.7,30.35,SSW,196,6.0,7.0,51,0.00,,---,0.00,VWS V14.00,2013-01-04 03:33:00,
2013-01-03 19:38:00,26.3,10.6,30.35,SSW,196,3.0,8.0,51,0.00,,---,0.00,VWS V14.00,2013-01-04 03:38:00,
2013-01-03 19:43:00,26.3,10.6,30.35,SW,215,4.0,7.0,51,0.00,,---,0.00,VWS V14.00,2013-01-04 03:43:00,
2013-01-03 19:48:00,26.3,10.2,30.36,SSW,195,5.0,13.0,50,0.00,,---,0.00,VWS V14.00,2013-01-04 03:48:00,
2013-01-03 19:53:00,26.3,10.2,30.36,SSW,200,5.0,14.0,50,0.00,,---,0.00,VWS V14.00,2013-01-04 03:53:00,
2013-01-03 19:58:00,26.3,10.2,30.36,SSW,198,6.0,14.0,50,0.00,,---,0.00,VWS V14.00,2013-01-04 03:58:00,
2013-01-03 20:04:00,26.1,10.0,30.37,SSW,206,7.0,13.0,50,0.00,,---,0.00,VWS V14.00,2013-01-04 04:04:00,
2013-01-03 20:09:00,26.1,10.0,30.37,SSW,213,8.0,13.0,50,0.00,,---,0.00,VWS V14.00,2013-01-04 04:09:00,
2013-01-03 20:14:00,26.3,10.6,30.37,SSW,209,7.0,13.0,51,0.00,,---,0.00,VWS V14.00,2013-01-04 04:14:00,
2013-01-03 20:19:00,26.1,10.0,30.36,SSW,198,8.0,13.0,50,0.00,,---,0.00,VWS V14.00,2013-01-04 04:19:00,
2013-01-03 20:24:00,26.1,10.0,30.36,SSW,198,8.0,12.0,50,0.00,,---,0.00,VWS V14.00,2013-01-04 04:24:00,
2013-01-03 20:29:00,26.0,9.9,30.36,SSW,195,11.0,13.0,50,0.00,,---,0.00,VWS V14.00,2013-01-04 04:29:00,
2013-01-03 20:34:00,26.0,9.9,30.36,South,185,11.0,14.0,50,0.00,,---,0.00,VWS V14.00,2013-01-04 04:34:00,
2013-01-03 20:39:00,26.0,10.4,30.36,SSW,203,10.0,17.0,51,0.00,,---,0.00,VWS V14.00,2013-01-04 04:39:00,
2013-01-03 20:44:00,25.8,11.0,30.36,SW,215,7.0,14.0,53,0.00,,---,0.00,VWS V14.00,2013-01-04 04:44:00,
2013-01-03 20:49:00,25.7,10.1,30.37,SSW,208,8.0,14.0,51,0.00,,---,0.00,VWS V14.00,2013-01-04 04:49:00,
2013-01-03 20:54:00,25.4,10.2,30.37,South,185,7.0,16.0,52,0.00,,---,0.00,VWS V14.00,2013-01-04 04:54:00,
2013-01-03 20:59:00,25.3,9.7,30.37,SW,216,7.0,16.0,51,0.00,,---,0.00,VWS V14.00,2013-01-04 04:59:00,
2013-01-03 21:00:00,25.4,9.8,30.37,South,182,7.0,16.0,51,0.00,,---,0.00,VWS V14.00,2013-01-04 05:00:00,
2013-01-03 21:03:00,25.4,10.7,30.37,South,189,5.0,18.0,53,0.00,,---,0.00,VWS V14.00,2013-01-04 05:03:00,
2013-01-03 21:04:00,25.4,10.2,30.37,SSW,200,10.0,18.0,52,0.00,,---,0.00,VWS V14.00,2013-01-04 05:04:00,
2013-01-03 21:09:00,25.3,9.7,30.37,South,189,6.0,18.0,51,0.00,,---,0.00,VWS V14.00,2013-01-04 05:09:00,
2013-01-03 21:11:00,25.3,10.1,30.37,SSW,202,5.0,18.0,52,0.00,,---,0.00,VWS V14.00,2013-01-04 05:11:00,
2013-01-03 21:16:00,25.6,9.6,30.35,SSW,203,7.0,17.0,50,0.00,,---,0.00,VWS V14.00,2013-01-04 05:16:00,
2013-01-03 21:21:00,25.7,10.1,30.35,SSW,206,5.0,5.0,51,0.00,,---,0.00,VWS V14.00,2013-01-04 05:21:00,
2013-01-03 21:26:00,25.6,10.0,30.35,SSW,198,10.0,12.0,51,0.00,,---,0.00,VWS V14.00,2013-01-04 05:26:00,
2013-01-03 21:31:00,25.7,9.2,30.36,South,181,2.0,7.0,49,0.00,,---,0.00,VWS V14.00,2013-01-04 05:31:00,
2013-01-03 21:36:00,25.7,10.5,30.36,SSW,202,4.0,12.0,52,0.00,,---,0.00,VWS V14.00,2013-01-04 05:36:00,
2013-01-03 21:41:00,25.8,10.2,30.36,SSW,202,5.0,10.0,51,0.00,,---,0.00,VWS V14.00,2013-01-04 05:41:00,
2013-01-03 21:46:00,25.8,10.2,30.36,SSW,203,3.0,11.0,51,0.00,,---,0.00,VWS V14.00,2013-01-04 05:46:00,
2013-01-03 21:52:00,25.8,10.2,30.36,SSW,205,5.0,7.0,51,0.00,,---,0.00,VWS V14.00,2013-01-04 05:52:00,
2013-01-03 21:57:00,25.8,10.2,30.36,South,186,6.0,7.0,51,0.00,,---,0.00,VWS V14.00,2013-01-04 05:57:00,
2013-01-03 22:02:00,25.6,10.4,30.37,South,191,7.0,7.0,52,0.00,,---,0.00,VWS V14.00,2013-01-04 06:02:00,
2013-01-03 22:07:00,25.4,10.2,30.37,SW,216,5.0,11.0,52,0.00,,---,0.00,VWS V14.00,2013-01-04 06:07:00,
2013-01-03 22:12:00,25.3,10.1,30.37,SSW,192,3.0,8.0,52,0.00,,---,0.00,VWS V14.00,2013-01-04 06:12:00,
2013-01-03 22:17:00,25.1,10.0,30.36,South,191,5.0,8.0,52,0.00,,---,0.00,VWS V14.00,2013-01-04 06:17:00,
2013-01-03 22:22:00,25.6,10.0,30.36,South,191,7.0,13.0,51,0.00,,---,0.00,VWS V14.00,2013-01-04 06:22:00,
2013-01-03 22:27:00,25.4,10.2,30.36,South,191,4.0,13.0,52,0.00,,---,0.00,VWS V14.00,2013-01-04 06:27:00,
2013-01-03 22:32:00,25.1,10.4,30.37,South,191,5.0,5.0,53,0.00,,---,0.00,VWS V14.00,2013-01-04 06:32:00,
2013-01-03 22:37:00,25.3,10.1,30.37,SSW,192,0.0,10.0,52,0.00,,---,0.00,VWS V14.00,2013-01-04 06:37:00,
2013-01-03 22:42:00,24.2,10.0,30.37,South,191,0.0,1.0,54,0.00,,---,0.00,VWS V14.00,2013-01-04 06:42:00,
2013-01-03 22:47:00,23.2,9.4,30.37,South,188,0.0,2.0,55,0.00,,---,0.00,VWS V14.00,2013-01-04 06:47:00,
2013-01-03 22:53:00,23.9,8.9,30.37,South,191,6.0,10.0,52,0.00,,---,0.00,VWS V14.00,2013-01-04 06:53:00,
2013-01-03 22:58:00,25.1,9.5,30.37,SSW,205,7.0,10.0,51,0.00,,---,0.00,VWS V14.00,2013-01-04 06:58:00,
2013-01-03 23:03:00,25.6,10.0,30.38,SSW,202,10.0,11.0,51,0.00,,---,0.00,VWS V14.00,2013-01-04 07:03:00,
2013-01-03 23:08:00,25.7,10.1,30.38,SSW,209,7.0,12.0,51,0.00,,---,0.00,VWS V14.00,2013-01-04 07:08:00,
2013-01-03 23:13:00,26.0,9.9,30.38,SW,215,7.0,11.0,50,0.00,,---,0.00,VWS V14.00,2013-01-04 07:13:00,
2013-01-03 23:18:00,26.1,10.5,30.34,SSW,205,6.0,12.0,51,0.00,,---,0.00,VWS V14.00,2013-01-04 07:18:00,
2013-01-03 23:23:00,26.1,10.5,30.34,South,186,10.0,16.0,51,0.00,,---,0.00,VWS V14.00,2013-01-04 07:23:00,
2013-01-03 23:28:00,25.8,10.6,30.34,South,189,7.0,16.0,52,0.00,,---,0.00,VWS V14.00,2013-01-04 07:28:00,
2013-01-03 23:33:00,25.7,11.4,30.34,South,191,7.0,8.0,54,0.00,,---,0.00,VWS V14.00,2013-01-04 07:33:00,
2013-01-03 23:38:00,25.6,11.3,30.34,SSW,192,7.0,12.0,54,0.00,,---,0.00,VWS V14.00,2013-01-04 07:38:00,
2013-01-03 23:43:00,24.5,11.5,30.34,South,186,4.0,7.0,57,0.00,,---,0.00,VWS V14.00,2013-01-04 07:43:00,
2013-01-03 23:48:00,23.8,11.6,30.36,South,184,5.0,8.0,59,0.00,,---,0.00,VWS V14.00,2013-01-04 07:48:00,
2013-01-03 23:53:00,23.6,11.4,30.36,South,184,5.0,5.0,59,0.00,,---,0.00,VWS V14.00,2013-01-04 07:53:00,
2013-01-03 23:59:00,24.2,11.6,30.36,South,172,7.0,7.0,58,0.00,,---,0.00,VWS V14.00,2013-01-04 07:59:00,